Time,TemperatureF,DewpointF,PressureIn,WindDirection,WindDirectionDegrees,WindSpeedMPH,WindSpeedGustMPH,Humidity,HourlyPrecipIn,Conditions,Clouds,dailyrainin,SoftwareType,DateUTC
2013-02-25 00:00:00,32.2,0.0,29.78,SSW,208,6.0,8.0,0,0.00,,,0.00,VWS V14.01,2013-02-25 05:00:00,
2013-02-25 00:10:00,32.4,0.0,29.78,SSW,211,2.0,11.0,0,0.00,,,0.00,VWS V14.01,2013-02-25 05:10:00,
2013-02-25 00:20:00,32.7,0.0,29.80,SSW,204,4.0,11.0,0,0.00,,,0.00,VWS V14.01,2013-02-25 05:20:00,
2013-02-25 00:30:00,32.8,0.0,29.80,SW,215,2.0,9.0,0,0.00,,,0.00,VWS V14.01,2013-02-25 05:30:00,
2013-02-25 00:40:00,32.9,0.0,29.80,WSW,250,0.0,11.0,0,0.00,,,0.00,VWS V14.01,2013-02-25 05:40:00,
2013-02-25 00:50:00,32.9,0.0,29.80,SSW,204,0.0,5.0,0,0.00,,,0.00,VWS V14.01,2013-02-25 05:50:00,
2013-02-25 01:00:00,32.8,0.0,29.81,SSW,204,2.0,7.0,0,0.00,,,0.00,VWS V14.01,2013-02-25 06:00:00,
2013-02-25 01:10:00,32.9,0.0,29.81,SSW,204,0.0,9.0,0,0.00,,,0.00,VWS V14.01,2013-02-25 06:10:00,
2013-02-25 01:20:00,32.9,0.0,29.81,SSW,204,2.0,7.0,0,0.00,,,0.00,VWS V14.01,2013-02-25 06:20:00,
2013-02-25 01:30:00,33.1,0.0,29.82,SSW,204,0.0,9.0,0,0.00,,,0.00,VWS V14.01,2013-02-25 06:30:00,
2013-02-25 01:40:00,33.1,0.0,29.82,SSW,204,1.0,4.0,0,0.00,,,0.00,VWS V14.01,2013-02-25 06:40:00,
2013-02-25 01:50:00,32.9,0.0,29.82,SSW,204,3.0,7.0,0,0.00,,,0.00,VWS V14.01,2013-02-25 06:50:00,
2013-02-25 02:00:00,32.8,0.0,29.83,SSW,204,0.0,6.0,0,0.00,,,0.00,VWS V14.01,2013-02-25 07:00:00,
2013-02-25 02:10:00,32.7,0.0,29.83,SSW,204,0.0,6.0,0,0.00,,,0.00,VWS V14.01,2013-02-25 07:10:00,
2013-02-25 02:20:00,32.4,0.0,29.83,SSW,204,0.0,5.0,0,0.00,,,0.00,VWS V14.01,2013-02-25 07:20:00,
2013-02-25 02:30:00,32.4,0.0,29.84,SSW,204,3.0,5.0,0,0.00,,,0.00,VWS V14.01,2013-02-25 07:30:00,
2013-02-25 02:40:00,32.2,0.0,29.84,SSW,204,0.0,5.0,0,0.00,,,0.00,VWS V14.01,2013-02-25 07:40:00,
2013-02-25 02:50:00,32.1,0.0,29.84,SSW,204,0.0,6.0,0,0.00,,,0.00,VWS V14.01,2013-02-25 07:50:00,
2013-02-25 03:00:00,32.1,0.0,29.84,SSW,204,0.0,4.0,0,0.00,,,0.00,VWS V14.01,2013-02-25 08:00:00,
2013-02-25 03:10:00,31.9,0.0,29.84,SSW,204,0.0,4.0,0,0.00,,,0.00,VWS V14.01,2013-02-25 08:10:00,
2013-02-25 03:20:00,31.9,0.0,29.84,SSW,205,0.0,3.0,0,0.00,,,0.00,VWS V14.01,2013-02-25 08:20:00,
2013-02-25 03:30:00,31.9,0.0,29.85,SSW,204,0.0,4.0,0,0.00,,,0.00,VWS V14.01,2013-02-25 08:30:00,
2013-02-25 03:40:00,31.8,0.0,29.85,SSW,204,0.0,5.0,0,0.00,,,0.00,VWS V14.01,2013-02-25 08:40:00,
2013-02-25 03:50:00,31.3,0.0,29.86,SSW,205,0.0,2.0,0,0.00,,,0.00,VWS V14.01,2013-02-25 08:50:00,
2013-02-25 04:00:00,30.7,0.0,29.86,SSW,204,0.0,3.0,0,0.00,,,0.00,VWS V14.01,2013-02-25 09:00:00,
2013-02-25 04:10:00,30.4,0.0,29.86,SSW,204,0.0,4.0,0,0.00,,,0.00,VWS V14.01,2013-02-25 09:10:00,
2013-02-25 04:20:00,30.1,0.0,29.87,SSW,204,0.0,1.0,0,0.00,,,0.00,VWS V14.01,2013-02-25 09:20:00,
2013-02-25 04:30:00,29.8,0.0,29.87,SSW,205,0.0,1.0,0,0.00,,,0.00,VWS V14.01,2013-02-25 09:30:00,
2013-02-25 04:40:00,29.4,0.0,29.87,SSW,204,0.0,0.0,0,0.00,,,0.00,VWS V14.01,2013-02-25 09:40:00,
2013-02-25 04:50:00,29.0,0.0,29.88,SSW,204,0.0,1.0,0,0.00,,,0.00,VWS V14.01,2013-02-25 09:50:00,
2013-02-25 05:00:00,28.7,0.0,29.88,SSW,204,0.0,3.0,0,0.00,,,0.00,VWS V14.01,2013-02-25 10:00:00,
2013-02-25 05:10:00,28.5,0.0,29.88,SSW,205,0.0,2.0,0,0.00,,,0.00,VWS V14.01,2013-02-25 10:10:00,
2013-02-25 05:20:00,28.5,0.0,29.89,SSW,204,0.0,4.0,0,0.00,,,0.00,VWS V14.01,2013-02-25 10:20:00,
2013-02-25 05:30:00,28.2,0.0,29.89,SSW,205,0.0,0.0,0,0.00,,,0.00,VWS V14.01,2013-02-25 10:30:00,
2013-02-25 05:40:00,27.9,0.0,29.89,SSW,205,1.0,1.0,0,0.00,,,0.00,VWS V14.01,2013-02-25 10:40:00,
2013-02-25 05:50:00,27.8,0.0,29.89,SSW,204,0.0,1.0,0,0.00,,,0.00,VWS V14.01,2013-02-25 10:50:00,
2013-02-25 06:00:00,27.6,0.0,29.90,SSW,204,0.0,0.0,0,0.00,,,0.00,VWS V14.01,2013-02-25 11:00:00,
2013-02-25 06:10:00,27.6,0.0,29.90,SSW,204,0.0,0.0,0,0.00,,,0.00,VWS V14.01,2013-02-25 11:10:00,
2013-02-25 06:20:00,27.3,0.0,29.90,SSW,204,0.0,0.0,0,0.00,,,0.00,VWS V14.01,2013-02-25 11:20:00,
2013-02-25 06:30:00,26.9,0.0,29.91,SSW,204,0.0,0.0,0,0.00,,,0.00,VWS V14.01,2013-02-25 11:30:00,
2013-02-25 06:40:00,26.6,0.0,29.91,SSW,204,0.0,0.0,0,0.00,,,0.00,VWS V14.01,2013-02-25 11:40:00,
2013-02-25 06:50:00,26.3,0.0,29.92,SSW,204,0.0,0.0,0,0.00,,,0.00,VWS V14.01,2013-02-25 11:50:00,
2013-02-25 07:00:00,26.6,0.0,29.92,SSW,204,0.0,1.0,0,0.00,,,0.00,VWS V14.01,2013-02-25 12:00:00,
2013-02-25 07:10:00,26.6,0.0,29.92,SSW,205,0.0,1.0,0,0.00,,,0.00,VWS V14.01,2013-02-25 12:10:00,
2013-02-25 07:20:00,26.7,0.0,29.93,SSW,204,0.0,0.0,0,0.00,,,0.00,VWS V14.01,2013-02-25 12:20:00,
2013-02-25 07:30:00,27.0,0.0,29.93,SSW,205,0.0,1.0,0,0.00,,,0.00,VWS V14.01,2013-02-25 12:30:00,
2013-02-25 07:40:00,27.5,0.0,29.93,SSW,204,0.0,2.0,0,0.00,,,0.00,VWS V14.01,2013-02-25 12:40:00,
2013-02-25 08:00:00,29.5,0.0,29.95,SSW,204,0.0,4.0,0,0.00,,,0.00,VWS V14.01,2013-02-25 13:00:00,
2013-02-25 08:10:00,31.0,0.0,29.95,SW,219,0.0,11.0,0,0.00,,,0.00,VWS V14.01,2013-02-25 13:10:00,
2013-02-25 08:20:00,32.4,0.0,29.95,SW,221,1.0,5.0,0,0.00,,,0.00,VWS V14.01,2013-02-25 13:20:00,
2013-02-25 08:30:00,33.1,0.0,29.95,East,100,0.0,9.0,0,0.00,,,0.00,VWS V14.01,2013-02-25 13:30:00,
2013-02-25 08:40:00,33.7,0.0,29.95,SE,137,1.0,7.0,0,0.00,,,0.00,VWS V14.01,2013-02-25 13:40:00,
2013-02-25 08:50:00,34.3,0.0,29.95,SE,130,0.0,8.0,0,0.00,,,0.00,VWS V14.01,2013-02-25 13:50:00,
2013-02-25 09:00:00,34.6,0.0,29.96,ESE,104,0.0,6.0,0,0.00,,,0.00,VWS V14.01,2013-02-25 14:00:00,
2013-02-25 09:10:00,34.9,0.0,29.96,South,178,1.0,5.0,0,0.00,,,0.00,VWS V14.01,2013-02-25 14:10:00,
2013-02-25 09:20:00,35.2,0.0,29.96,West,275,1.0,5.0,0,0.00,,,0.00,VWS V14.01,2013-02-25 14:20:00,
2013-02-25 09:30:00,35.6,0.0,29.96,SSW,198,0.0,11.0,0,0.00,,,0.00,VWS V14.01,2013-02-25 14:30:00,
2013-02-25 09:40:00,36.0,0.0,29.96,SSW,212,2.0,6.0,0,0.00,,,0.00,VWS V14.01,2013-02-25 14:40:00,
2013-02-25 09:50:00,36.3,0.0,29.97,SW,219,1.0,9.0,0,0.00,,,0.00,VWS V14.01,2013-02-25 14:50:00,
2013-02-25 10:00:00,36.8,0.0,29.97,SW,227,2.0,11.0,0,0.00,,,0.00,VWS V14.01,2013-02-25 15:00:00,
2013-02-25 10:10:00,37.0,0.0,29.97,SSW,206,0.0,7.0,0,0.00,,,0.00,VWS V14.01,2013-02-25 15:10:00,
2013-02-25 10:20:00,37.2,0.0,29.98,SSW,208,6.0,6.0,0,0.00,,,0.00,VWS V14.01,2013-02-25 15:20:00,
2013-02-25 10:30:00,37.5,0.0,29.97,SSW,200,4.0,7.0,0,0.00,,,0.00,VWS V14.01,2013-02-25 15:30:00,
2013-02-25 10:40:00,37.8,0.0,29.97,SW,217,1.0,4.0,0,0.00,,,0.00,VWS V14.01,2013-02-25 15:40:00,
2013-02-25 10:50:00,38.0,0.0,29.97,SSW,192,0.0,6.0,0,0.00,,,0.00,VWS V14.01,2013-02-25 15:50:00,
2013-02-25 11:00:00,38.3,0.0,29.97,East,101,0.0,3.0,0,0.00,,,0.00,VWS V14.01,2013-02-25 16:00:00,
2013-02-25 11:10:00,38.5,0.0,29.97,North,355,1.0,3.0,0,0.00,,,0.00,VWS V14.01,2013-02-25 16:10:00,
2013-02-25 11:20:00,38.6,0.0,29.98,ENE,58,0.0,3.0,0,0.00,,,0.00,VWS V14.01,2013-02-25 16:20:00,
2013-02-25 11:30:00,38.9,0.0,29.98,ESE,122,1.0,3.0,0,0.00,,,0.00,VWS V14.01,2013-02-25 16:30:00,
2013-02-25 11:40:00,39.1,0.0,29.98,SE,132,0.0,3.0,0,0.00,,,0.00,VWS V14.01,2013-02-25 16:40:00,
2013-02-25 11:50:00,39.1,0.0,29.98,WSW,238,0.0,5.0,0,0.00,,,0.00,VWS V14.01,2013-02-25 16:50:00,
2013-02-25 12:00:00,39.3,0.0,29.98,WSW,243,0.0,5.0,0,0.00,,,0.00,VWS V14.01,2013-02-25 17:00:00,
2013-02-25 12:10:00,39.8,0.0,29.98,South,184,0.0,7.0,0,0.00,,,0.00,VWS V14.01,2013-02-25 17:10:00,
2013-02-25 12:20:00,40.1,0.0,29.97,SSW,212,0.0,6.0,0,0.00,,,0.00,VWS V14.01,2013-02-25 17:20:00,
2013-02-25 12:30:00,40.3,0.0,29.98,SSW,207,0.0,7.0,0,0.00,,,0.00,VWS V14.01,2013-02-25 17:30:00,
2013-02-25 12:40:00,40.6,0.0,29.98,ESE,109,2.0,3.0,0,0.00,,,0.00,VWS V14.01,2013-02-25 17:40:00,
2013-02-25 12:50:00,40.9,0.0,29.99,South,190,1.0,7.0,0,0.00,,,0.00,VWS V14.01,2013-02-25 17:50:00,
2013-02-25 13:00:00,40.9,0.0,29.98,SSE,168,2.0,4.0,0,0.00,,,0.00,VWS V14.01,2013-02-25 18:00:00,
2013-02-25 13:10:00,41.1,0.0,29.98,West,262,1.0,5.0,0,0.00,,,0.00,VWS V14.01,2013-02-25 18:10:00,
2013-02-25 13:20:00,41.2,0.0,29.99,WSW,257,3.0,4.0,0,0.00,,,0.00,VWS V14.01,2013-02-25 18:20:00,
2013-02-25 13:30:00,41.3,0.0,29.99,WSW,255,3.0,6.0,0,0.00,,,0.00,VWS V14.01,2013-02-25 18:30:00,
2013-02-25 13:40:00,41.8,0.0,29.99,SW,218,1.0,6.0,0,0.00,,,0.00,VWS V14.01,2013-02-25 18:40:00,
2013-02-25 13:50:00,41.9,0.0,29.99,WSW,256,1.0,5.0,0,0.00,,,0.00,VWS V14.01,2013-02-25 18:50:00,
2013-02-25 14:00:00,41.9,0.0,29.98,East,84,0.0,7.0,0,0.00,,,0.00,VWS V14.01,2013-02-25 19:00:00,
2013-02-25 14:10:00,42.1,0.0,29.98,SSW,205,1.0,6.0,0,0.00,,,0.00,VWS V14.01,2013-02-25 19:10:00,
2013-02-25 14:20:00,41.9,0.0,29.99,East,92,0.0,3.0,0,0.00,,,0.00,VWS V14.01,2013-02-25 19:20:00,
2013-02-25 14:30:00,41.9,0.0,29.99,South,171,0.0,3.0,0,0.00,,,0.00,VWS V14.01,2013-02-25 19:30:00,
2013-02-25 14:40:00,41.8,0.0,29.99,ENE,74,0.0,4.0,0,0.00,,,0.00,VWS V14.01,2013-02-25 19:40:00,
2013-02-25 14:50:00,41.8,0.0,30.00,ESE,123,0.0,2.0,0,0.00,,,0.00,VWS V14.01,2013-02-25 19:50:00,
2013-02-25 15:00:00,41.6,0.0,29.99,ESE,113,0.0,2.0,0,0.00,,,0.00,VWS V14.01,2013-02-25 20:00:00,
2013-02-25 15:10:00,42.1,0.0,29.99,WSW,249,0.0,7.0,0,0.00,,,0.00,VWS V14.01,2013-02-25 20:10:00,
2013-02-25 15:20:00,42.8,0.0,30.00,SSW,193,1.0,6.0,0,0.00,,,0.00,VWS V14.01,2013-02-25 20:20:00,
2013-02-25 15:30:00,42.9,0.0,30.00,WSW,242,0.0,10.0,0,0.00,,,0.00,VWS V14.01,2013-02-25 20:30:00,
2013-02-25 15:40:00,42.9,0.0,30.00,WSW,242,0.0,3.0,0,0.00,,,0.00,VWS V14.01,2013-02-25 20:40:00,
2013-02-25 15:50:00,43.2,0.0,30.01,SW,214,0.0,5.0,0,0.00,,,0.00,VWS V14.01,2013-02-25 20:50:00,
2013-02-25 16:00:00,43.1,0.0,30.00,SW,214,1.0,2.0,0,0.00,,,0.00,VWS V14.01,2013-02-25 21:00:00,
2013-02-25 16:10:00,42.3,0.0,30.00,SSW,213,0.0,1.0,0,0.00,,,0.00,VWS V14.01,2013-02-25 21:10:00,
2013-02-25 16:20:00,41.5,0.0,30.00,SW,214,0.0,1.0,0,0.00,,,0.00,VWS V14.01,2013-02-25 21:20:00,
2013-02-25 16:30:00,41.1,0.0,30.01,ENE,74,0.0,3.0,0,0.00,,,0.00,VWS V14.01,2013-02-25 21:30:00,
2013-02-25 16:40:00,40.6,0.0,30.01,WSW,253,1.0,3.0,0,0.00,,,0.00,VWS V14.01,2013-02-25 21:40:00,
2013-02-25 16:50:00,40.5,0.0,30.01,NE,50,2.0,3.0,0,0.00,,,0.00,VWS V14.01,2013-02-25 21:50:00,
2013-02-25 17:00:00,40.1,0.0,30.01,NE,50,0.0,2.0,0,0.00,,,0.00,VWS V14.01,2013-02-25 22:00:00,
2013-02-25 17:10:00,39.6,0.0,30.01,NE,50,1.0,1.0,0,0.00,,,0.00,VWS V14.01,2013-02-25 22:10:00,
2013-02-25 17:20:00,39.3,0.0,30.01,NE,51,0.0,2.0,0,0.00,,,0.00,VWS V14.01,2013-02-25 22:20:00,
2013-02-25 17:30:00,39.1,0.0,30.01,NE,51,0.0,1.0,0,0.00,,,0.00,VWS V14.01,2013-02-25 22:30:00,
2013-02-25 17:40:00,38.5,0.0,30.01,NE,51,0.0,1.0,0,0.00,,,0.00,VWS V14.01,2013-02-25 22:40:00,
2013-02-25 17:50:00,38.2,0.0,30.02,NE,51,0.0,0.0,0,0.00,,,0.00,VWS V14.01,2013-02-25 22:50:00,
2013-02-25 18:00:00,37.9,0.0,30.03,NE,51,0.0,0.0,0,0.00,,,0.00,VWS V14.01,2013-02-25 23:00:00,
2013-02-25 18:10:00,37.3,0.0,30.03,NE,51,0.0,0.0,0,0.00,,,0.00,VWS V14.01,2013-02-25 23:10:00,
2013-02-25 18:20:00,37.0,0.0,30.04,NE,51,0.0,0.0,0,0.00,,,0.00,VWS V14.01,2013-02-25 23:20:00,
2013-02-25 18:30:00,36.6,0.0,30.04,NE,51,0.0,0.0,0,0.00,,,0.00,VWS V14.01,2013-02-25 23:30:00,
2013-02-25 18:40:00,36.3,0.0,30.04,NE,51,0.0,0.0,0,0.00,,,0.00,VWS V14.01,2013-02-25 23:40:00,
2013-02-25 18:50:00,36.0,0.0,30.06,NE,51,0.0,0.0,0,0.00,,,0.00,VWS V14.01,2013-02-25 23:50:00,
2013-02-25 19:00:00,36.0,0.0,30.06,NE,51,0.0,0.0,0,0.00,,,0.00,VWS V14.01,2013-02-26 00:00:00,
2013-02-25 19:10:00,35.9,0.0,30.06,NE,51,0.0,0.0,0,0.00,,,0.00,VWS V14.01,2013-02-26 00:10:00,
2013-02-25 19:20:00,36.0,0.0,30.07,NE,51,0.0,2.0,0,0.00,,,0.00,VWS V14.01,2013-02-26 00:20:00,
2013-02-25 19:30:00,36.2,0.0,30.07,NE,51,0.0,1.0,0,0.00,,,0.00,VWS V14.01,2013-02-26 00:30:00,
2013-02-25 19:40:00,36.2,0.0,30.07,NE,51,0.0,1.0,0,0.00,,,0.00,VWS V14.01,2013-02-26 00:40:00,
2013-02-25 19:50:00,36.2,0.0,30.07,NE,51,0.0,1.0,0,0.00,,,0.00,VWS V14.01,2013-02-26 00:50:00,
2013-02-25 20:00:00,36.2,0.0,30.08,NE,51,0.0,1.0,0,0.00,,,0.00,VWS V14.01,2013-02-26 01:00:00,
2013-02-25 20:10:00,36.2,0.0,30.08,NE,51,0.0,0.0,0,0.00,,,0.00,VWS V14.01,2013-02-26 01:10:00,
2013-02-25 20:20:00,36.2,0.0,30.08,NE,51,0.0,0.0,0,0.00,,,0.00,VWS V14.01,2013-02-26 01:20:00,
2013-02-25 20:30:00,36.2,0.0,30.08,NE,51,0.0,0.0,0,0.00,,,0.00,VWS V14.01,2013-02-26 01:30:00,
2013-02-25 20:40:00,36.2,0.0,30.08,NE,51,0.0,0.0,0,0.00,,,0.00,VWS V14.01,2013-02-26 01:40:00,
2013-02-25 20:50:00,36.0,0.0,30.08,NE,51,0.0,0.0,0,0.00,,,0.00,VWS V14.01,2013-02-26 01:50:00,
2013-02-25 21:00:00,35.9,0.0,30.09,NE,51,0.0,0.0,0,0.00,,,0.00,VWS V14.01,2013-02-26 02:00:00,
2013-02-25 21:10:00,35.9,0.0,30.09,NE,51,0.0,0.0,0,0.00,,,0.00,VWS V14.01,2013-02-26 02:10:00,
2013-02-25 21:20:00,35.9,0.0,30.09,NE,51,0.0,0.0,0,0.00,,,0.00,VWS V14.01,2013-02-26 02:20:00,
2013-02-25 21:30:00,35.9,0.0,30.09,NE,51,0.0,0.0,0,0.00,,,0.00,VWS V14.01,2013-02-26 02:30:00,
2013-02-25 21:40:00,35.9,0.0,30.09,NE,51,0.0,0.0,0,0.00,,,0.00,VWS V14.01,2013-02-26 02:40:00,
2013-02-25 21:50:00,35.8,0.0,30.09,NE,51,0.0,0.0,0,0.00,,,0.00,VWS V14.01,2013-02-26 02:50:00,
2013-02-25 22:00:00,35.8,0.0,30.09,NE,51,0.0,0.0,0,0.00,,,0.00,VWS V14.01,2013-02-26 03:00:00,
2013-02-25 22:10:00,35.6,0.0,30.09,NE,51,0.0,0.0,0,0.00,,,0.00,VWS V14.01,2013-02-26 03:10:00,
2013-02-25 22:20:00,35.8,0.0,30.10,NE,51,0.0,0.0,0,0.00,,,0.00,VWS V14.01,2013-02-26 03:20:00,
2013-02-25 22:30:00,35.8,0.0,30.10,NE,51,0.0,0.0,0,0.00,,,0.00,VWS V14.01,2013-02-26 03:30:00,
2013-02-25 22:40:00,35.8,0.0,30.10,NE,51,0.0,0.0,0,0.00,,,0.00,VWS V14.01,2013-02-26 03:40:00,
2013-02-25 22:50:00,35.8,0.0,30.10,NE,51,0.0,0.0,0,0.00,,,0.00,VWS V14.01,2013-02-26 03:50:00,
2013-02-25 23:00:00,35.8,0.0,30.10,NE,51,0.0,0.0,0,0.00,,,0.00,VWS V14.01,2013-02-26 04:00:00,
2013-02-25 23:10:00,35.8,0.0,30.10,NE,51,0.0,0.0,0,0.00,,,0.00,VWS V14.01,2013-02-26 04:10:00,
2013-02-25 23:20:00,35.8,0.0,30.10,NE,51,0.0,0.0,0,0.00,,,0.00,VWS V14.01,2013-02-26 04:20:00,
2013-02-25 23:30:00,35.6,0.0,30.10,NE,51,0.0,0.0,0,0.00,,,0.00,VWS V14.01,2013-02-26 04:30:00,
2013-02-25 23:40:00,35.5,0.0,30.10,NE,51,0.0,0.0,0,0.00,,,0.00,VWS V14.01,2013-02-26 04:40:00,
2013-02-25 23:50:00,35.5,0.0,30.09,NE,51,0.0,0.0,0,0.00,,,0.00,VWS V14.01,2013-02-26 04:50:00,